Time,TemperatureF,DewpointF,PressureIn,WindDirection,WindDirectionDegrees,WindSpeedMPH,WindSpeedGustMPH,Humidity,HourlyPrecipIn,Conditions,Clouds,dailyrainin,SoftwareType,DateUTC
2013-08-07 00:02:00,75.0,-99.9,-100.00,SSE,160,1.0,2.0,-999,0.00,,,0.00,,2013-08-07 05:02:00,
2013-08-07 00:11:00,75.0,-99.9,-100.00,SSE,160,1.0,2.0,-999,0.00,,,0.00,,2013-08-07 05:11:00,
2013-08-07 00:22:00,75.0,-99.9,-100.00,SSE,160,1.0,2.0,-999,0.00,,,0.00,,2013-08-07 05:22:00,
2013-08-07 00:43:00,75.0,-99.9,-100.00,South,177,1.0,1.0,-999,0.00,,,0.00,,2013-08-07 05:43:00,
2013-08-07 00:52:00,75.0,-99.9,-100.00,South,177,1.0,1.0,-999,0.00,,,0.00,,2013-08-07 05:52:00,
2013-08-07 01:12:00,74.0,-99.9,-100.00,SE,134,3.0,4.0,-999,0.00,,,0.00,,2013-08-07 06:12:00,
2013-08-07 01:22:00,74.0,-99.9,-100.00,SE,134,3.0,4.0,-999,0.00,,,0.00,,2013-08-07 06:22:00,
2013-08-07 01:43:00,74.0,-99.9,-100.00,SSE,147,1.0,2.0,-999,0.00,,,0.00,,2013-08-07 06:43:00,
2013-08-07 01:52:00,74.0,-99.9,-100.00,SSE,147,1.0,2.0,-999,0.00,,,0.00,,2013-08-07 06:52:00,
2013-08-07 02:12:00,74.0,-99.9,-100.00,SE,146,0.0,1.0,-999,0.00,,,0.00,,2013-08-07 07:12:00,
2013-08-07 02:22:00,74.0,-99.9,-100.00,SE,146,0.0,1.0,-999,0.00,,,0.00,,2013-08-07 07:22:00,
2013-08-07 02:44:00,74.0,-99.9,-100.00,South,173,0.0,2.0,-999,0.00,,,0.00,,2013-08-07 07:44:00,
2013-08-07 02:53:00,74.0,-99.9,-100.00,South,173,0.0,2.0,-999,0.00,,,0.00,,2013-08-07 07:53:00,
2013-08-07 03:02:00,73.0,-99.9,-100.00,SE,133,1.0,2.0,-999,0.00,,,0.00,,2013-08-07 08:02:00,
2013-08-07 03:11:00,73.0,-99.9,-100.00,SE,133,1.0,2.0,-999,0.00,,,0.00,,2013-08-07 08:11:00,
2013-08-07 03:22:00,73.0,-99.9,-100.00,SE,133,1.0,2.0,-999,0.00,,,0.00,,2013-08-07 08:22:00,
2013-08-07 03:44:00,73.0,-99.9,-100.00,SSE,149,2.0,3.0,-999,0.00,,,0.00,,2013-08-07 08:44:00,
2013-08-07 03:53:00,73.0,-99.9,-100.00,SSE,149,2.0,3.0,-999,0.00,,,0.00,,2013-08-07 08:53:00,
2013-08-07 04:12:00,72.0,-99.9,-100.00,SSE,151,2.0,4.0,-999,0.00,,,0.00,,2013-08-07 09:12:00,
2013-08-07 04:22:00,72.0,-99.9,-100.00,SSE,151,2.0,4.0,-999,0.00,,,0.00,,2013-08-07 09:22:00,
2013-08-07 04:32:00,72.0,-99.9,-100.00,South,170,0.0,1.0,-999,0.00,,,0.00,,2013-08-07 09:32:00,
2013-08-07 04:43:00,72.0,-99.9,-100.00,South,170,0.0,1.0,-999,0.00,,,0.00,,2013-08-07 09:43:00,
2013-08-07 04:54:00,72.0,-99.9,-100.00,South,170,0.0,1.0,-999,0.00,,,0.00,,2013-08-07 09:54:00,
2013-08-07 05:01:00,73.0,-99.9,-100.00,SE,139,0.0,2.0,-999,0.00,,,0.00,,2013-08-07 10:01:00,
2013-08-07 05:11:00,73.0,-99.9,-100.00,SE,139,0.0,2.0,-999,0.00,,,0.00,,2013-08-07 10:11:00,
2013-08-07 05:22:00,73.0,-99.9,-100.00,SE,139,0.0,2.0,-999,0.00,,,0.00,,2013-08-07 10:22:00,
2013-08-07 05:32:00,73.0,-99.9,-100.00,SE,131,0.0,1.0,-999,0.00,,,0.00,,2013-08-07 10:32:00,
2013-08-07 05:43:00,73.0,-99.9,-100.00,SE,131,0.0,1.0,-999,0.00,,,0.00,,2013-08-07 10:43:00,
2013-08-07 05:52:00,73.0,-99.9,-100.00,SE,131,0.0,1.0,-999,0.00,,,0.00,,2013-08-07 10:52:00,
2013-08-07 06:11:00,73.0,-99.9,-100.00,SE,145,0.0,2.0,-999,0.00,,,0.00,,2013-08-07 11:11:00,
2013-08-07 06:22:00,73.0,-99.9,-100.00,SE,145,0.0,2.0,-999,0.00,,,0.00,,2013-08-07 11:22:00,
2013-08-07 06:43:00,74.0,-99.9,-100.00,NNE,32,1.0,2.0,-999,0.00,,,0.00,,2013-08-07 11:43:00,
2013-08-07 06:53:00,74.0,-99.9,-100.00,NNE,32,1.0,2.0,-999,0.00,,,0.00,,2013-08-07 11:53:00,
2013-08-07 07:02:00,73.0,-99.9,-100.00,South,185,0.0,1.0,-999,0.00,,,0.00,,2013-08-07 12:02:00,
2013-08-07 07:12:00,73.0,-99.9,-100.00,South,185,0.0,1.0,-999,0.00,,,0.00,,2013-08-07 12:12:00,
2013-08-07 07:22:00,73.0,-99.9,-100.00,South,185,0.0,1.0,-999,0.00,,,0.00,,2013-08-07 12:22:00,
2013-08-07 07:30:00,73.0,-99.9,-100.00,SSE,156,1.0,2.0,-999,0.00,,,0.00,,2013-08-07 12:30:00,
2013-08-07 07:43:00,72.0,-99.9,-100.00,SSE,166,1.0,2.0,-999,0.00,,,0.00,,2013-08-07 12:43:00,
2013-08-07 07:53:00,72.0,-99.9,-100.00,SSE,166,1.0,2.0,-999,0.00,,,0.00,,2013-08-07 12:53:00,
2013-08-07 08:12:00,73.0,-99.9,-100.00,SSE,156,1.0,2.0,-999,0.00,,,0.00,,2013-08-07 13:12:00,
2013-08-07 08:22:00,73.0,-99.9,-100.00,SSE,156,1.0,2.0,-999,0.00,,,0.00,,2013-08-07 13:22:00,
2013-08-07 09:12:00,77.0,-99.9,-100.00,SSE,159,1.0,2.0,-999,0.00,,,0.00,,2013-08-07 14:12:00,
2013-08-07 09:22:00,77.0,-99.9,-100.00,SSE,159,1.0,2.0,-999,0.00,,,0.00,,2013-08-07 14:22:00,
2013-08-07 09:33:00,80.0,-99.9,-100.00,South,187,1.0,3.0,-999,0.00,,,0.00,,2013-08-07 14:33:00,
2013-08-07 09:43:00,80.0,-99.9,-100.00,South,187,1.0,3.0,-999,0.00,,,0.00,,2013-08-07 14:43:00,
2013-08-07 09:52:00,80.0,-99.9,-100.00,South,187,1.0,3.0,-999,0.00,,,0.00,,2013-08-07 14:52:00,
2013-08-07 10:13:00,79.0,-99.9,-100.00,SW,234,5.0,8.0,-999,0.00,,,0.00,,2013-08-07 15:13:00,
2013-08-07 10:22:00,79.0,-99.9,-100.00,SW,234,5.0,8.0,-999,0.00,,,0.00,,2013-08-07 15:22:00,
2013-08-07 10:44:00,79.0,-99.9,-100.00,WSW,250,6.0,7.0,-999,0.00,,,0.00,,2013-08-07 15:44:00,
2013-08-07 10:53:00,79.0,-99.9,-100.00,WSW,250,6.0,7.0,-999,0.00,,,0.00,,2013-08-07 15:53:00,
2013-08-07 11:11:00,79.0,-99.9,-100.00,WSW,246,6.0,7.0,-999,0.00,,,0.00,,2013-08-07 16:11:00,
2013-08-07 11:22:00,79.0,-99.9,-100.00,WSW,246,6.0,7.0,-999,0.00,,,0.00,,2013-08-07 16:22:00,
2013-08-07 11:33:00,80.0,-99.9,-100.00,West,259,3.0,4.0,-999,0.00,,,0.00,,2013-08-07 16:33:00,
2013-08-07 11:43:00,80.0,-99.9,-100.00,West,259,3.0,4.0,-999,0.00,,,0.00,,2013-08-07 16:43:00,
2013-08-07 11:53:00,80.0,-99.9,-100.00,West,259,3.0,4.0,-999,0.00,,,0.00,,2013-08-07 16:53:00,
2013-08-07 12:02:00,81.0,-99.9,-100.00,SW,230,3.0,5.0,-999,0.00,,,0.00,,2013-08-07 17:02:00,
2013-08-07 12:11:00,81.0,-99.9,-100.00,SW,230,3.0,5.0,-999,0.00,,,0.00,,2013-08-07 17:11:00,
2013-08-07 12:23:00,81.0,-99.9,-100.00,SW,230,3.0,5.0,-999,0.00,,,0.00,,2013-08-07 17:23:00,
2013-08-07 12:33:00,82.0,-99.9,-100.00,WSW,238,2.0,4.0,-999,0.00,,,0.00,,2013-08-07 17:33:00,
2013-08-07 12:43:00,82.0,-99.9,-100.00,WSW,238,2.0,4.0,-999,0.00,,,0.00,,2013-08-07 17:43:00,
2013-08-07 12:52:00,82.0,-99.9,-100.00,WSW,238,2.0,4.0,-999,0.00,,,0.00,,2013-08-07 17:52:00,
2013-08-07 13:12:00,83.0,-99.9,-100.00,SW,222,1.0,4.0,-999,0.00,,,0.00,,2013-08-07 18:12:00,
2013-08-07 13:22:00,83.0,-99.9,-100.00,SW,222,1.0,4.0,-999,0.00,,,0.00,,2013-08-07 18:22:00,
2013-08-07 13:32:00,84.0,-99.9,-100.00,SW,215,2.0,5.0,-999,0.00,,,0.00,,2013-08-07 18:32:00,
2013-08-07 13:43:00,84.0,-99.9,-100.00,SW,215,2.0,5.0,-999,0.00,,,0.00,,2013-08-07 18:43:00,
2013-08-07 13:52:00,84.0,-99.9,-100.00,SW,215,2.0,5.0,-999,0.00,,,0.00,,2013-08-07 18:52:00,
2013-08-07 14:11:00,86.0,-99.9,-100.00,WSW,240,3.0,5.0,-999,0.00,,,0.00,,2013-08-07 19:11:00,
2013-08-07 14:22:00,86.0,-99.9,-100.00,WSW,240,3.0,5.0,-999,0.00,,,0.00,,2013-08-07 19:22:00,
2013-08-07 14:44:00,86.0,-99.9,-100.00,SSW,211,3.0,5.0,-999,0.00,,,0.00,,2013-08-07 19:44:00,
2013-08-07 14:53:00,86.0,-99.9,-100.00,SSW,211,3.0,5.0,-999,0.00,,,0.00,,2013-08-07 19:53:00,
2013-08-07 15:02:00,82.0,-99.9,-100.00,WSW,239,4.0,5.0,-999,0.00,,,0.00,,2013-08-07 20:02:00,
2013-08-07 15:11:00,82.0,-99.9,-100.00,WSW,239,4.0,5.0,-999,0.00,,,0.00,,2013-08-07 20:11:00,
2013-08-07 15:22:00,82.0,-99.9,-100.00,WSW,239,4.0,5.0,-999,0.00,,,0.00,,2013-08-07 20:22:00,
2013-08-07 15:33:00,84.0,-99.9,-100.00,SSW,196,0.0,1.0,-999,0.00,,,0.00,,2013-08-07 20:33:00,
2013-08-07 15:43:00,84.0,-99.9,-100.00,SSW,196,0.0,1.0,-999,0.00,,,0.00,,2013-08-07 20:43:00,
2013-08-07 15:52:00,84.0,-99.9,-100.00,SSW,196,0.0,1.0,-999,0.00,,,0.00,,2013-08-07 20:52:00,
2013-08-07 17:12:00,77.0,-99.9,-100.00,NE,41,2.0,3.0,-999,-99.99,,,0.34,,2013-08-07 22:12:00,
2013-08-07 17:22:00,77.0,-99.9,-100.00,NE,41,2.0,3.0,-999,-99.99,,,0.34,,2013-08-07 22:22:00,
2013-08-07 17:32:00,80.0,-99.9,-100.00,WSW,252,2.0,4.0,-999,0.00,,,0.34,,2013-08-07 22:32:00,
2013-08-07 17:43:00,80.0,-99.9,-100.00,WSW,252,2.0,4.0,-999,0.00,,,0.34,,2013-08-07 22:43:00,
2013-08-07 17:52:00,80.0,-99.9,-100.00,WSW,252,2.0,4.0,-999,0.00,,,0.34,,2013-08-07 22:52:00,
2013-08-07 18:11:00,80.0,-99.9,-100.00,SW,232,1.0,3.0,-999,0.00,,,0.34,,2013-08-07 23:11:00,
2013-08-07 18:22:00,80.0,-99.9,-100.00,SW,232,1.0,3.0,-999,0.00,,,0.34,,2013-08-07 23:22:00,
2013-08-07 18:32:00,81.0,-99.9,-100.00,South,191,0.0,1.0,-999,0.01,,,0.35,,2013-08-07 23:32:00,
2013-08-07 18:43:00,81.0,-99.9,-100.00,South,191,0.0,1.0,-999,0.01,,,0.35,,2013-08-07 23:43:00,
2013-08-07 18:52:00,81.0,-99.9,-100.00,South,191,0.0,1.0,-999,0.01,,,0.35,,2013-08-07 23:52:00,
2013-08-07 19:02:00,80.0,-99.9,-100.00,SW,228,3.0,6.0,-999,0.01,,,0.35,,2013-08-08 00:02:00,
2013-08-07 19:11:00,80.0,-99.9,-100.00,SW,228,3.0,6.0,-999,0.01,,,0.35,,2013-08-08 00:11:00,
2013-08-07 19:22:00,80.0,-99.9,-100.00,SW,228,3.0,6.0,-999,0.01,,,0.35,,2013-08-08 00:22:00,
2013-08-07 19:32:00,80.0,-99.9,-100.00,WSW,253,2.0,4.0,-999,0.00,,,0.35,,2013-08-08 00:32:00,
2013-08-07 19:43:00,80.0,-99.9,-100.00,WSW,253,2.0,4.0,-999,0.00,,,0.35,,2013-08-08 00:43:00,
2013-08-07 19:53:00,80.0,-99.9,-100.00,WSW,253,2.0,4.0,-999,0.00,,,0.35,,2013-08-08 00:53:00,
2013-08-07 20:11:00,79.0,-99.9,-100.00,West,263,1.0,2.0,-999,0.00,,,0.35,,2013-08-08 01:11:00,
2013-08-07 20:22:00,79.0,-99.9,-100.00,West,263,1.0,2.0,-999,0.00,,,0.35,,2013-08-08 01:22:00,
2013-08-07 20:32:00,80.0,-99.9,-100.00,North,354,6.0,10.0,-999,0.00,,,0.35,,2013-08-08 01:32:00,
2013-08-07 20:43:00,80.0,-99.9,-100.00,North,354,6.0,10.0,-999,0.00,,,0.35,,2013-08-08 01:43:00,
2013-08-07 20:53:00,80.0,-99.9,-100.00,North,354,6.0,10.0,-999,0.00,,,0.35,,2013-08-08 01:53:00,
2013-08-07 21:11:00,79.0,-99.9,-100.00,North,5,9.0,11.0,-999,0.00,,,0.35,,2013-08-08 02:11:00,
2013-08-07 21:22:00,79.0,-99.9,-100.00,North,5,9.0,11.0,-999,0.00,,,0.35,,2013-08-08 02:22:00,
2013-08-07 21:32:00,78.0,-99.9,-100.00,North,6,9.0,11.0,-999,0.00,,,0.35,,2013-08-08 02:32:00,
2013-08-07 21:43:00,78.0,-99.9,-100.00,North,6,9.0,11.0,-999,0.00,,,0.35,,2013-08-08 02:43:00,
2013-08-07 21:53:00,78.0,-99.9,-100.00,North,6,9.0,11.0,-999,0.00,,,0.35,,2013-08-08 02:53:00,
2013-08-07 22:12:00,77.0,-99.9,-100.00,NNE,20,7.0,8.0,-999,0.00,,,0.35,,2013-08-08 03:12:00,
2013-08-07 22:22:00,77.0,-99.9,-100.00,NNE,20,7.0,8.0,-999,0.00,,,0.35,,2013-08-08 03:22:00,
2013-08-07 22:32:00,76.0,-99.9,-100.00,North,356,5.0,6.0,-999,0.00,,,0.35,,2013-08-08 03:32:00,
2013-08-07 22:43:00,76.0,-99.9,-100.00,North,356,5.0,6.0,-999,0.00,,,0.35,,2013-08-08 03:43:00,
2013-08-07 22:52:00,76.0,-99.9,-100.00,North,356,5.0,6.0,-999,0.00,,,0.35,,2013-08-08 03:52:00,
2013-08-07 23:12:00,75.0,-99.9,-100.00,North,9,7.0,9.0,-999,0.00,,,0.35,,2013-08-08 04:12:00,
2013-08-07 23:22:00,75.0,-99.9,-100.00,North,9,7.0,9.0,-999,0.00,,,0.35,,2013-08-08 04:22:00,
2013-08-07 23:44:00,74.0,-99.9,-100.00,North,9,7.0,9.0,-999,0.00,,,0.35,,2013-08-08 04:44:00,
2013-08-07 23:53:00,74.0,-99.9,-100.00,North,9,7.0,9.0,-999,0.00,,,0.35,,2013-08-08 04:53:00,